TimeCST,TemperatureF,Dew PointF,Humidity,Sea Level PressureIn,VisibilityMPH,Wind Direction,Wind SpeedMPH,Gust SpeedMPH,PrecipitationIn,Events,Conditions,WindDirDegrees,DateUTC
12:55 AM,30.9,28.6,91,30.41,6.0,Calm,Calm,-,N/A,,Clear,0,2012-11-18 06:55:00
1:55 AM,30.6,30.2,99,30.40,6.0,NW,3.5,-,N/A,,Clear,310,2012-11-18 07:55:00
2:55 AM,29.5,29.3,99,30.41,7.0,Calm,Calm,-,N/A,,Clear,0,2012-11-18 08:55:00
3:11 AM,28.4,28.4,100,30.41,5.0,Calm,Calm,-,N/A,,Clear,0,2012-11-18 09:11:00
3:17 AM,28.4,28.4,100,30.40,5.0,Calm,Calm,-,N/A,,Clear,0,2012-11-18 09:17:00
3:55 AM,28.8,27.5,95,30.40,6.0,Calm,Calm,-,N/A,,Clear,0,2012-11-18 09:55:00
4:25 AM,28.4,28.4,100,30.40,1.5,Calm,Calm,-,N/A,,Clear,0,2012-11-18 10:25:00
4:55 AM,27.9,27.7,99,30.40,6.0,Calm,Calm,-,N/A,,Clear,0,2012-11-18 10:55:00
4:58 AM,28.4,28.4,100,30.41,4.0,Calm,Calm,-,N/A,,Clear,0,2012-11-18 10:58:00
5:55 AM,27.3,26.8,98,30.41,5.0,Calm,Calm,-,N/A,,Clear,0,2012-11-18 11:55:00
6:01 AM,28.4,26.6,93,30.42,4.0,Calm,Calm,-,N/A,,Clear,0,2012-11-18 12:01:00
6:14 AM,28.4,26.6,93,30.42,4.0,Calm,Calm,-,N/A,,Clear,0,2012-11-18 12:14:00
6:25 AM,28.4,26.6,93,30.42,4.0,Calm,Calm,-,N/A,,Clear,0,2012-11-18 12:25:00
6:55 AM,27.5,27.1,99,30.42,2.0,Calm,Calm,-,N/A,,Clear,0,2012-11-18 12:55:00
6:57 AM,26.6,26.6,100,30.42,3.0,Calm,Calm,-,N/A,,Clear,0,2012-11-18 12:57:00
7:55 AM,29.7,29.5,99,30.42,4.0,Calm,Calm,-,N/A,,Clear,0,2012-11-18 13:55:00
8:55 AM,39.0,35.4,87,30.42,10.0,Calm,Calm,-,N/A,,Clear,0,2012-11-18 14:55:00
9:55 AM,46.0,37.4,72,30.42,10.0,Calm,Calm,-,N/A,,Clear,0,2012-11-18 15:55:00
10:55 AM,52.0,37.6,58,30.41,10.0,Variable,3.5,-,N/A,,Clear,0,2012-11-18 16:55:00
11:55 AM,55.6,38.1,52,30.38,10.0,SSE,5.8,-,N/A,,Clear,160,2012-11-18 17:55:00
12:55 PM,58.8,37.6,45,30.36,10.0,SE,6.9,-,N/A,,Clear,140,2012-11-18 18:55:00
1:55 PM,59.7,35.6,41,30.34,10.0,SE,8.1,-,N/A,,Clear,140,2012-11-18 19:55:00
2:55 PM,60.3,34.3,38,30.32,9.0,SE,8.1,-,N/A,,Clear,140,2012-11-18 20:55:00
3:55 PM,58.1,35.6,43,30.32,10.0,SE,8.1,-,N/A,,Clear,130,2012-11-18 21:55:00
4:55 PM,51.1,35.2,55,30.32,10.0,ESE,4.6,-,N/A,,Clear,120,2012-11-18 22:55:00
5:55 PM,49.6,35.1,57,30.33,10.0,Calm,Calm,-,N/A,,Clear,0,2012-11-18 23:55:00
6:55 PM,40.8,35.1,80,30.34,10.0,Calm,Calm,-,N/A,,Clear,0,2012-11-19 00:55:00
7:55 PM,41.2,34.7,78,30.35,10.0,Calm,Calm,-,N/A,,Clear,0,2012-11-19 01:55:00
8:55 PM,37.0,33.1,86,30.34,10.0,Calm,Calm,-,N/A,,Clear,0,2012-11-19 02:55:00
9:55 PM,38.7,33.4,81,30.34,10.0,Calm,Calm,-,N/A,,Clear,0,2012-11-19 03:55:00
10:55 PM,37.0,35.1,93,30.34,10.0,Calm,Calm,-,N/A,,Clear,0,2012-11-19 04:55:00
11:55 PM,37.4,34.3,89,30.32,10.0,Calm,Calm,-,N/A,,Partly Cloudy,0,2012-11-19 05:55:00